Location: Newark
(25.4800°N, 85.7200°E)
Time: 23:52:09
(UTC+00:00)

Vanguard 1 Rocket - Pass Details

Date: 20 August 2019
Orbit: 652 x 4225 km, 34.3° (Epoch: 15 September)

Event Time Altitude Azimuth Distance (km) Brightness Sun altitude
Rises 00:38:36 0° 295° (WNW) 3,631 10.0 9.4°
Reaches altitude 10° 00:40:42 10° 299° (WNW) 2,919 9.6 9.8°
Maximum altitude 00:47:50 64° 21° (NNE) 1,743 9.2 11.4°
Drops below altitude 10° 01:02:03 10° 101° (E) 5,532 13.1 14.6°
Sets 01:07:43 0° 104° (ESE) 7,117 13.3 15.9°
